When you browse on this site, cookies collect data to enhance your experience and personalize the content and advertising you see.
Visit our Privacy Policy to learn more. By continuing to use the site, you agree to this use of cookies and data.
  • In United Kingdom
  • List of Countries
  • For 7 days
  • Water Temperature
  • Satellite Maps
  • Weather Map
  • Weather Widgets
  • user-avatar
    Login

    Hourly Weather Polanur

    Today, 16 January, Wednesday

    Time Temperature Precipitation Wind Pressure Humidity
    00:00 -1°C° 0.1 mm 5 mps 741 mmHg 90%
    01:00 -2°C° 0 mm 4 mps 741 mmHg 91%
    02:00 -2°C° 0 mm 3 mps 741 mmHg 92%
    03:00 -2°C° 0 mm 3 mps 742 mmHg 94%
    04:00 -2°C° 0.1 mm 3 mps 741 mmHg 94%
    05:00 -2°C° 0.1 mm 3 mps 741 mmHg 95%
    06:00 -1°C° 0.1 mm 3 mps 741 mmHg 95%
    07:00 -2°C° 0.4 mm 4 mps 741 mmHg 95%
    08:00 -2°C° 0.4 mm 4 mps 740 mmHg 94%
    09:00 -2°C° 0 mm 5 mps 740 mmHg 93%
    10:00 -2°C° 0.6 mm 5 mps 740 mmHg 92%
    11:00 -3°C° 0.6 mm 6 mps 739 mmHg 92%
    12:00 -3°C° 0.6 mm 6 mps 738 mmHg 91%
    13:00 -3°C° 0.9 mm 6 mps 738 mmHg 91%
    14:00 -3°C° 0.9 mm 6 mps 738 mmHg 92%
    15:00 -6°C° 0 mm 7 mps 737 mmHg 94%
    16:00 -6°C° 0.9 mm 7 mps 737 mmHg 94%
    17:00 -5°C° 0.9 mm 6 mps 736 mmHg 94%
    18:00 -6°C° 0.9 mm 5 mps 736 mmHg 94%
    19:00 -5°C° 0.7 mm 5 mps 736 mmHg 94%
    20:00 -4°C° 0.7 mm 4 mps 736 mmHg 95%
    21:00 -4°C° 0.7 mm 3 mps 736 mmHg 96%
    22:00 -5°C° 0.5 mm 3 mps 736 mmHg 95%
    23:00 -5°C° 0.5 mm 4 mps 736 mmHg 95%

    Tomorrow, 17 January, Thursday

    Time Temperature Precipitation Wind Pressure Humidity
    00:00 -7°C° 0.5 mm 4 mps 736 mmHg 94%
    01:00 -8°C° 0.3 mm 4 mps 737 mmHg 94%
    02:00 -8°C° 0.3 mm 4 mps 737 mmHg 93%
    03:00 -9°C° 0.3 mm 4 mps 738 mmHg 93%
    04:00 -11°C° 0 mm 4 mps 739 mmHg 94%
    05:00 -12°C° 0 mm 4 mps 740 mmHg 95%
    06:00 -13°C° 0 mm 3 mps 741 mmHg 96%
    07:00 -15°C° 0 mm 4 mps 741 mmHg 95%
    08:00 -15°C° 0 mm 4 mps 742 mmHg 94%
    09:00 -15°C° 0 mm 4 mps 743 mmHg 93%
    10:00 -14°C° 0 mm 4 mps 743 mmHg 92%
    11:00 -12°C° 0 mm 4 mps 744 mmHg 91%
    12:00 -11°C° 0 mm 4 mps 744 mmHg 89%
    13:00 -11°C° 0 mm 4 mps 744 mmHg 89%
    14:00 -10°C° 0 mm 4 mps 744 mmHg 89%
    15:00 -10°C° 0 mm 4 mps 744 mmHg 89%
    16:00 -10°C° 0 mm 4 mps 744 mmHg 90%
    17:00 -11°C° 0 mm 4 mps 744 mmHg 91%
    18:00 -11°C° 0 mm 4 mps 744 mmHg 92%
    19:00 -12°C° 0 mm 5 mps 744 mmHg 91%
    20:00 -12°C° 0 mm 5 mps 744 mmHg 91%
    21:00 -13°C° 0 mm 5 mps 744 mmHg 90%
    22:00 -13°C° 0 mm 5 mps 743 mmHg 90%
    23:00 -13°C° 0 mm 5 mps 743 mmHg 90%

    Day after tomorrow, 18 January, Friday

    Time Temperature Precipitation Wind Pressure Humidity
    00:00 -14°C° 0 mm 6 mps 743 mmHg 91%
    01:00 -12°C° 0.2 mm 6 mps 742 mmHg 91%
    02:00 -12°C° 0.2 mm 6 mps 742 mmHg 91%
    03:00 -12°C° 0.2 mm 7 mps 741 mmHg 92%
    04:00 -11°C° 0.4 mm 7 mps 741 mmHg 90%
    05:00 -11°C° 0.4 mm 7 mps 740 mmHg 89%
    06:00 -9°C° 0.4 mm 7 mps 739 mmHg 88%
    07:00 -8°C° 0.2 mm 7 mps 739 mmHg 87%
    08:00 -7°C° 0.2 mm 8 mps 739 mmHg 87%
    09:00 -6°C° 0.2 mm 8 mps 738 mmHg 87%
    10:00 -5°C° 0.1 mm 8 mps 738 mmHg 86%
    11:00 -4°C° 0.1 mm 8 mps 739 mmHg 85%
    12:00 -4°C° 0.1 mm 8 mps 739 mmHg 84%
    13:00 -2°C° 0.1 mm 7 mps 740 mmHg 86%
    14:00 -2°C° 0.1 mm 7 mps 740 mmHg 87%
    15:00 -2°C° 0.1 mm 6 mps 741 mmHg 88%
    16:00 -2°C° 0 mm 6 mps 741 mmHg 88%
    17:00 -1°C° 0 mm 5 mps 742 mmHg 89%
    18:00 -1°C° 0 mm 5 mps 743 mmHg 89%
    19:00 -1°C° 0 mm 5 mps 743 mmHg 89%
    20:00 -2°C° 0 mm 5 mps 743 mmHg 89%
    21:00 -2°C° 0 mm 5 mps 743 mmHg 90%
    22:00 -2°C° 0 mm 5 mps 742 mmHg 90%
    23:00 -2°C° 0 mm 5 mps 742 mmHg 90%

    19 January, Saturday

    Time Temperature Precipitation Wind Pressure Humidity
    00:00 -4°C° 0 mm 5 mps 742 mmHg 90%
    01:00 -4°C° 0.3 mm 6 mps 742 mmHg 91%
    02:00 -4°C° 0.3 mm 6 mps 741 mmHg 92%
    03:00 -4°C° 0.3 mm 6 mps 741 mmHg 92%
    04:00 -4°C° 0.8 mm 6 mps 740 mmHg 92%
    05:00 -3°C° 0.8 mm 7 mps 739 mmHg 91%
    06:00 -3°C° 0.8 mm 7 mps 738 mmHg 90%
    07:00 -3°C° 0.3 mm 7 mps 738 mmHg 88%
    08:00 -2°C° 0.3 mm 7 mps 738 mmHg 86%
    09:00 -2°C° 0.3 mm 7 mps 738 mmHg 83%
    10:00 -4°C° 0.1 mm 7 mps 739 mmHg 84%
    11:00 -6°C° 0.1 mm 7 mps 740 mmHg 84%
    12:00 -8°C° 0.1 mm 7 mps 741 mmHg 84%
    13:00 -9°C° 0 mm 6 mps 742 mmHg 85%
    14:00 -11°C° 0 mm 5 mps 743 mmHg 86%
    15:00 -11°C° 0 mm 4 mps 744 mmHg 87%
    16:00 -12°C° 0 mm 4 mps 744 mmHg 89%
    17:00 -14°C° 0 mm 4 mps 745 mmHg 91%
    18:00 -14°C° 0 mm 3 mps 745 mmHg 93%
    19:00 -14°C° 0 mm 3 mps 746 mmHg 92%
    20:00 -14°C° 0 mm 3 mps 746 mmHg 92%
    21:00 -15°C° 0 mm 3 mps 746 mmHg 92%
    22:00 -15°C° 0 mm 4 mps 746 mmHg 92%
    23:00 -15°C° 0 mm 4 mps 747 mmHg 92%

    20 January, Sunday

    Time Temperature Precipitation Wind Pressure Humidity
    00:00 -14°C° 0 mm 4 mps 747 mmHg 92%
    01:00 -14°C° 0 mm 4 mps 747 mmHg 92%
    02:00 -12°C° 0 mm 4 mps 747 mmHg 92%
    03:00 -12°C° 0 mm 4 mps 747 mmHg 92%
    04:00 -12°C° 0 mm 4 mps 748 mmHg 92%
    05:00 -12°C° 0 mm 4 mps 748 mmHg 92%
    06:00 -12°C° 0 mm 4 mps 748 mmHg 92%
    07:00 -12°C° 0 mm 4 mps 748 mmHg 92%
    08:00 -12°C° 0 mm 4 mps 748 mmHg 92%
    09:00 -11°C° 0 mm 4 mps 748 mmHg 93%
    10:00 -11°C° 0.1 mm 4 mps 749 mmHg 92%
    11:00 -10°C° 0.1 mm 4 mps 749 mmHg 90%
    12:00 -10°C° 0.1 mm 5 mps 749 mmHg 89%
    13:00 -9°C° 0.1 mm 4 mps 749 mmHg 89%
    14:00 -9°C° 0.1 mm 4 mps 749 mmHg 88%
    15:00 -9°C° 0.1 mm 4 mps 750 mmHg 88%
    16:00 -9°C° 0.1 mm 4 mps 750 mmHg 89%
    17:00 -10°C° 0.1 mm 4 mps 750 mmHg 91%
    18:00 -10°C° 0.1 mm 4 mps 750 mmHg 92%
    19:00 -9°C° 0.1 mm 3 mps 751 mmHg 93%
    20:00 -10°C° 0.1 mm 3 mps 751 mmHg 94%
    21:00 -10°C° 0.1 mm 3 mps 751 mmHg 95%
    22:00 -12°C° 0 mm 3 mps 751 mmHg 95%
    23:00 -10°C° 0 mm 2 mps 752 mmHg 96%

    21 January, Monday

    Time Temperature Precipitation Wind Pressure Humidity
    00:00 -12°C° 0 mm 2 mps 752 mmHg 97%
    01:00 -12°C° 0 mm 2 mps 752 mmHg 97%
    02:00 -12°C° 0 mm 2 mps 753 mmHg 97%
    03:00 -13°C° 0 mm 3 mps 753 mmHg 97%
    04:00 -13°C° 0 mm 3 mps 753 mmHg 97%
    05:00 -13°C° 0 mm 3 mps 753 mmHg 97%
    06:00 -13°C° 0 mm 3 mps 753 mmHg 96%
    07:00 -13°C° 0 mm 3 mps 753 mmHg 96%
    08:00 -12°C° 0 mm 3 mps 753 mmHg 96%
    09:00 -12°C° 0 mm 3 mps 754 mmHg 95%
    10:00 -12°C° 0 mm 3 mps 754 mmHg 94%
    11:00 -10°C° 0 mm 3 mps 754 mmHg 93%
    12:00 -10°C° 0 mm 4 mps 754 mmHg 92%
    13:00 -9°C° 0.1 mm 3 mps 753 mmHg 92%
    14:00 -10°C° 0.1 mm 3 mps 753 mmHg 92%
    15:00 -10°C° 0.1 mm 3 mps 753 mmHg 91%
    16:00 -12°C° 0.1 mm 3 mps 753 mmHg 93%
    17:00 -12°C° 0.1 mm 3 mps 753 mmHg 94%
    18:00 -13°C° 0.1 mm 3 mps 752 mmHg 95%
    19:00 -13°C° 0.1 mm 3 mps 752 mmHg 95%
    20:00 -12°C° 0.1 mm 2 mps 752 mmHg 96%
    21:00 -13°C° 0.1 mm 2 mps 752 mmHg 96%
    22:00 -12°C° 0.1 mm 2 mps 751 mmHg 96%
    23:00 -12°C° 0.1 mm 2 mps 751 mmHg 96%
    Show more